TIME,DELAY(SENSOR),PRES,OXYGEN,RAWTEMP,T(OPTODE),TCPHASE,FLUOR,BETA(BETA700),BETA(BETA412),BETA(BETA440),CDOM,C(CSC),ED(ED411.90),ED(ED443.80),ED(ED489.40),ED(ED554.70),LU(LU412.20),LU(LU443.80),LU(LU489.40),LU(LU555.00),COMP,TILTX,TILTY,CHECK
1378935996,5807,825.4299926757812000,127.1852035522461000,316.5286865234375000,13.1348495483398440,40.4633293151855500,108,4130,47,50,38,9568,2146963565,2147518400,2147283200,2147474843,2147083602,2146938569,2147681453,2147121901,588,-1,8,40519
1378939592,5807,947.6900024414062000,100.2240982055664000,400.2370910644531000,10.5954704284667970,44.5021781921386700,110,4130,47,50,40,9561,2146964845,2147518957,2147289124,2147491657,2147084589,2146935771,2147700379,2147119122,1995,-1,8,11406
1378943192,5807,985.5399780273438000,101.3728027343750000,422.8970947265625000,9.9036159515380860,44.7150611877441400,111,4130,48,50,52,9562,2146963218,2147518637,2147292123,2147498331,2147085668,2146936512,2147706176,2147123254,3159,-1,8,36694
1378946792,5803,982.9799804687500000,73.1164398193359400,426.7524108886719000,9.7856702804565430,48.1161499023437500,110,4130,47,50,53,9559,2146960082,2147519579,2147294692,2147497024,2147083867,2146932013,2147705435,2147121362,3464,-1,8,17320
1378950392,5802,987.5200195312500000,57.9555397033691400,431.0653076171875000,9.6536417007446290,50.2479095458984400,111,4130,46,50,53,9560,2146964790,2147520457,2147295058,2147500416,2147083958,2146932379,2147708242,2147122569,3400,-1,8,14385
1378953992,5808,991.3900146484375000,73.6584396362304700,436.1246948242187500,9.4986410140991210,48.1726493835449200,110,4130,47,50,52,9554,2146963785,2147521417,2147293613,2147499328,2147086034,2146928795,2147706203,2147122395,40,-1,8,19335
1378957592,5805,991.0000000000000000,92.0828399658203100,438.6888122558594000,9.4200372695922850,45.9796714782714840,111,4130,48,50,53,9554,2146961152,2147517686,2147295442,2147498569,2147084489,2146930276,2147709897,2147119387,150,-1,8,38221
1378961192,5808,987.7800292968750000,55.5290412902832000,438.9520874023437500,9.4119653701782230,50.6949005126953100,113,4130,48,49,52,9551,2146961920,2147520402,2147297197,2147498870,2147087579,2146928603,2147708242,2147120000,790,-1,8,914
1378964792,5803,992.2500000000000000,89.8319702148437500,444.9515075683594000,9.2279100418090820,46.3284301757812500,114,4130,48,50,52,9544,2146959506,2147517019,2147295241,2147501558,2147082240,2146927862,2147708187,2147118372,3262,-1,8,1263
1378968392,5806,996.7600097656250000,108.6578979492187500,447.5440063476562500,9.1483144760131840,44.3172302246093750,112,4130,48,50,52,9542,2146960475,2147518134,2147295305,2147502619,2147084086,2146924397,2147707684,2147124068,3559,-1,8,6180
1378971992,5802,1000.9699707031250000,104.8256988525390600,447.3850097656250000,9.1531972885131840,44.7140884399414060,114,4130,48,50,52,9537,2146962331,2147518372,2147295451,2147501302,2147083958,2146927680,2147709997,2147123072,3411,-1,8,2603
1378975592,5807,1001.3499755859375000,104.1716995239257800,447.5291137695312500,9.1487731933593750,44.7835006713867200,114,4130,47,50,53,9538,2146963766,2147516891,2147297764,2147498742,2147086144,2146926637,2147707529,2147122642,3560,-1,8,61484
1378979192,5805,1001.7399902343750000,102.7554016113281200,447.3059082031250000,9.1556262969970700,44.9297294616699200,114,4130,47,49,53,9536,2146963364,2147519643,2147296758,2147501659,2147084544,2146929901,2147707282,2147122340,3158,-1,8,54892
1378982792,5808,1000.4299926757812000,111.7951965332031200,447.4307861328125000,9.1517915725708000,43.9980506896972660,114,4130,47,50,53,9536,2146963136,2147517933,2147295899,2147500004,2147088173,2146930614,2147705325,2147118976,3377,-1,8,7957
1378986392,5807,1007.1099853515625000,100.9246978759765600,447.2500000000000000,9.1573448181152340,45.1268692016601560,114,4130,48,49,54,9538,2146965833,2147520557,2147295634,2147501494,2147085211,2146934619,2147707977,2147117961,3145,-1,8,22969
1378989992,5804,1005.4000244140625000,105.9669036865234400,446.7132873535156000,9.1738233566284180,44.5846290588378900,116,4130,49,50,53,9535,2146963181,2147517723,2147296841,2147502994,2147084516,2146928804,2147710921,2147120438,3525,-1,8,41273
1378993592,5809,1000.4199829101562000,101.0626983642578100,447.3778991699219000,9.1534156799316400,45.1135597229003900,115,4130,47,50,53,9538,2146964406,2147520091,2147296877,2147500736,2147084141,2146927744,2147705883,2147118262,426,-1,8,50994
1378997192,5806,1002.3099975585938000,107.3119964599609400,447.4919128417969000,9.1499156951904300,44.4562797546386700,116,4130,48,50,53,9528,2146966454,2147520758,2147299254,2147502592,2147084534,2146929042,2147704978,2147121929,3465,-1,8,16152
1379000792,5809,1003.2299804687500000,105.7453002929687500,447.4313049316406000,9.1517763137817380,44.6182899475097660,116,4130,47,51,52,9533,2146963748,2147520795,2147295670,2147500224,2147085842,2146933412,2147707474,2147118637,78,-1,8,18942
1379004392,5806,999.4199829101562000,83.9996871948242200,447.4859924316406000,9.1500968933105470,47.0458984375000000,116,4130,48,50,52,9533,2146966454,2147516964,2147295286,2147501494,2147085522,2146927195,2147709558,2147122477,3427,-1,8,30193
1379007992,5806,994.0900268554688000,108.1128005981445300,446.3504943847656000,9.1849622726440430,44.3556785583496100,116,4130,47,50,53,9533,2146966957,2147520219,2147296941,2147501586,2147084644,2146930121,2147708068,2147121069,3502,-1,8,29278
1379011592,5804,996.3499755859375000,127.1931991577148400,445.9403991699219000,9.1975545883178710,42.4872398376464840,117,4130,47,50,53,9535,2146965293,2147523227,2147295058,2147500690,2147085065,2146928502,2147709705,2147123044,3508,-1,8,22336
1379015192,5805,1000.4000244140625000,131.8103942871093800,447.4552001953125000,9.1510410308837890,42.0911712646484400,118,4130,47,50,52,9522,2146963803,2147516708,2147301321,2147497270,2147085869,2146928064,2147704109,2147119606,3020,-1,8,9402
1379018792,5807,994.9899902343750000,131.9906005859375000,445.9523925781250000,9.1971864700317380,42.0509185791015600,118,4130,48,50,53,9528,2146962422,2147518582,2147295305,2147500635,2147083766,2146930276,2147706486,2147121846,236,-1,8,50949
1379022392,5807,997.5900268554688000,126.2079010009765600,445.9690856933594000,9.1966724395751950,42.5788993835449200,118,4130,48,49,52,9529,2146964434,2147519369,2147297344,2147500736,2147083492,2146924717,2147706130,2147120777,287,-1,8,42837
1379025992,5805,1000.2299804687500000,116.4259033203125000,447.8320007324219000,9.1394720077514650,43.5424690246582000,118,4130,48,49,53,9522,2146965293,2147522816,2147295241,2147501348,2147084489,2146926701,2147706230,2147122422,3232,-1,8,41898
1379029592,5808,999.6199951171875000,116.9580993652343800,447.2579956054687500,9.1570968627929690,43.4810600280761700,118,4130,48,50,53,9523,2146966756,2147518482,2147296649,2147501376,2147083200,2146926144,2147707483,2147121243,205,-1,8,53486
1379033192,5805,999.1900024414062000,123.3404998779296900,447.4652099609375000,9.1507349014282230,42.8709487915039060,118,4130,47,50,52,9515,2146963419,2147517641,2147296448,2147500498,2147083428,2146930779,2147705846,2147122596,29,-1,8,49778
1379036792,5806,999.9799804687500000,130.8674011230468800,446.3175048828125000,9.1859741210937500,42.1570091247558600,118,4130,48,49,52,9517,2146964672,2147519131,2147297499,2147501129,2147088475,2146928768,2147703963,2147122651,3499,-1,8,43900
1379040392,5804,1005.3099975585938000,130.3805999755859400,447.9819946289062500,9.1348657608032230,42.2274894714355500,118,4130,49,50,51,9514,2146964525,2147520448,2147291136,2147497856,2147088173,2146930395,2147705206,2147123099,569,-1,8,6267
1379043992,5808,1003.6799926757812000,130.2377929687500000,448.2503967285156000,9.1266231536865230,42.2448997497558600,119,4130,47,50,51,9509,2146960905,2147520192,2147293138,2147502665,2147082404,2146932077,2147706121,2147121837,651,-1,8,30106
1379047592,5805,999.1599731445312000,120.2189025878906200,446.1193847656250000,9.1920566558837890,43.1473197937011700,118,4130,47,50,52,9512,2146964836,2147521481,2147293952,2147501805,2147083190,2146925257,2147707885,2147121490,3525,-1,8,32311
1379051192,5807,999.7600097656250000,114.0151977539062500,446.1979064941406000,9.1896457672119140,43.7550201416015600,120,4130,48,50,52,9511,2146960585,2147516160,2147292544,2147501897,2147086244,2146931145,2147704475,2147121965,233,-1,8,12317
1379054792,5808,990.0000000000000000,122.1707992553711000,446.3781127929687500,9.1841154098510740,42.9647407531738300,120,4130,47,50,52,9517,2146963894,2147518080,2147295405,2147499227,2147085952,2146931392,2147708672,2147120905,116,-1,8,35295
1379058392,5808,997.5700073242188000,130.2500000000000000,446.0223999023437500,9.1950349807739260,42.2082290649414060,120,4130,47,50,53,9509,2146962084,2147519259,2147295177,2147501248,2147085257,2146932553,2147711972,2147122029,421,-1,8,59506
1379061992,5806,995.3200073242188000,117.4952011108398400,446.8677978515625000,9.1690797805786130,43.4226684570312500,120,4130,47,49,52,9512,2146962505,2147519186,2147296027,2147497133,2147086043,2146935076,2147712512,2147119268,3378,-1,8,37494
1379065592,5807,999.8200073242188000,124.3572006225586000,451.5383911132812500,9.0256099700927730,42.8404808044433600,121,4130,48,50,53,9505,2146966217,2147521472,2147295808,2147501915,2147087433,2146926345,2147709120,2147121334,403,-1,8,30721
1379069192,5804,1003.2899780273438000,137.6221008300781200,445.7338867187500000,9.2038908004760740,41.5477790832519500,120,4130,47,50,52,9511,2146965750,2147519497,2147297828,2147502034,2147083602,2146933522,2147705746,2147117586,2778,-1,8,7447
1379072792,5808,1000.6699829101562000,144.1513061523437500,445.5740966796875000,9.2087974548339840,40.9892807006835940,121,4130,48,49,52,9505,2146963995,2147521792,2147295341,2147499940,2147086244,2146929033,2147706898,2147120740,3192,-1,8,47268
1379076392,5806,999.2899780273438000,145.6002960205078000,446.4753112792969000,9.1811313629150390,40.8822288513183600,120,4130,46,50,52,9498,2146962294,2147519725,2147294445,2147502564,2147084717,2146931922,2147709229,2147122203,3232,-1,8,42538
1379079056,5809,998.6199951171875000,142.6732940673828000,445.7525939941406000,9.2033176422119140,41.1167106628418000,120,4130,48,50,53,9517,2146964580,2147522432,2147297737,2147498907,2147082130,2146934509,2147705910,2147124150,3203,-1,8,60884
